Overview Statistics Trail Chart Weather Telemetry Raw packets
 

This is the latest recevied weather packets stored in our database for station/object AF0GV-15. If no packets are shown the sender has not sent any weather packets the latest 10 day(s).

<< 1 2 3 4 5 6 >>
Time Temp. Humidity Pressure Rain* Wind** Luminosity Snow
1788521569 23.33° C 85% 1012.7 hPa 0 mm - - -
1788520620 23.33° C 86% 1012.6 hPa 0 mm - - -
1788519671 23.33° C 86% 1012.6 hPa 0 mm - - -
1788518723 23.33° C 86% 1012.6 hPa 0 mm - - -
1788517773 23.33° C 86% 1012.5 hPa 0 mm - - -
1788516824 22.78° C 86% 1012.4 hPa 0 mm - - -
1788515875 22.78° C 87% 1012.3 hPa 0 mm - - -
1788514927 22.78° C 87% 1012.2 hPa 0 mm - - -
1788513977 22.22° C 88% 1011.9 hPa 0 mm - - -
1788513028 22.22° C 88% 1011.8 hPa 0 mm - - -
1788512079 22.78° C 88% 1011.7 hPa 0 mm - - -
1788511131 22.78° C 88% 1011.6 hPa 0 mm - - -
1788510181 22.78° C 87% 1011.6 hPa 0 mm - - -
1788509233 23.33° C 86% 1011.6 hPa 0 mm - - -
1788508283 23.33° C 86% 1011.6 hPa 0 mm - - -
1788507335 23.89° C 84% 1011.6 hPa 0 mm - - -
1788506386 23.89° C 83% 1011.6 hPa 0 mm - - -
1788505436 24.44° C 82% 1011.6 hPa 0 mm - - -
1788503539 25° C 80% 1011.7 hPa 0 mm - - -
1788502589 25° C 79% 1011.7 hPa 0 mm - - -
1788501640 25° C 78% 1011.7 hPa 0 mm - - -
1788500691 25° C 80% 1011.7 hPa 0 mm - - -
1788499742 25° C 79% 1011.5 hPa 0 mm - - -
1788498793 25.56° C 79% 1011.5 hPa 0 mm - - -
1788497844 26.11° C 77% 1011.3 hPa 0 mm - - -

* Rain latest hour (hover to see other rain measurements)
** Current wind speed in m/s (hover to see current wind gust speed)